Wind_Speed
2 1 3 5 7 7 7 7 6 5 6 5 4 4 5 6 7 6 4 4 1 1 9 9 9 12 16 17 14 14 21 24 24 25 27 27 30 35 38 41 44 47 46 41 37 36 35 33 30 27 25 23 20 18 15 13 12 12 11 11 11 12 13 14 16 18 19 21 22 23 24 24 24 25 26 27 29 30 30 30 30 31 32 33 33 34
3 3 7 9 9 7 5 6 6 5 5 3 3 4 5 5 8 8 3 4 1 3 7 6 7 12 15 15 17 12 13 18 23 25 28 29 31 35 38 43 46 45 43 40 39 38 37 35 32 29 28 25 23 20 17 15 14 13 12 11 11 12 13 15 17 18 20 22 23 24 25 26 26 27 28 28 28 29 29 29 30 31 32 33 34 35
2 6 10 8 6 6 5 5 7 5 4 2 2 1 4 4 5 8 4 4 2 3 5 7 7 13 15 14 18 18 14 19 27 30 33 32 32 36 40 44 45 42 41 42 42 41 40 38 35 32 30 27 24 21 19 17 15 13 11 11 11 12 14 15 17 18 20 22 23 25 26 27 28 28 29 29 30 31 31 31 32 33 33 34 35 36
2 7 7 5 8 8 5 4 7 5 2 3 3 2 5 3 1 5 4 5 3 3 4 8 10 12 13 12 17 22 19 22 29 30 33 33 34 39 42 43 44 44 44 45 45 45 43 41 38 36 33 29 26 24 22 19 16 13 11 10 11 12 14 15 17 19 21 22 23 24 25 27 28 29 30 31 32 33 34 34 34 34 35 36 37 37
7 6 3 6 6 7 5 3 5 4 2 3 5 6 6 5 5 6 4 5 4 3 3 6 11 9 6 8 12 11 9 15 20 21 26 32 35 38 38 40 43 45 46 46 47 48 46 44 41 38 35 31 29 26 24 20 16 13 11 10 10 12 13 15 17 19 21 22 24 25 26 28 29 29 31 33 34 35 36 36 36 36 36 36 37 37
8 4 6 6 2 4 6 4 5 7 3 4 5 10 10 8 7 4 4 5 4 4 4 5 7 7 1 4 9 6 4 8 10 11 19 27 31 33 36 39 41 42 44 46 48 49 49 47 44 40 37 34 31 28 24 20 16 12 11 10 10 11 13 15 17 19 21 23 24 26 28 29 31 31 31 33 34 35 35 36 36 36 35 36 36 36
3 1 4 5 5 5 5 5 5 7 4 3 4 7 7 4 2 2 2 3 1 3 3 3 2 9 2 2 8 8 7 9 9 9 15 21 25 30 37 40 39 40 43 44 46 48 50 49 46 43 40 37 33 28 25 21 16 13 10 10 10 11 13 15 17 19 21 23 25 27 28 29 31 33 33 33 35 36 36 37 37 37 37 36 37 37
2 3 3 5 5 5 5 5 6 8 7 3 4 5 6 5 4 4 2 1 3 2 4 2 4 8 8 5 9 9 8 10 13 15 14 17 24 30 37 39 39 41 43 44 46 48 51 51 49 46 42 38 33 29 26 21 17 13 10 9 10 12 13 15 17 19 21 23 25 26 28 29 30 32 34 35 35 37 38 39 39 39 39 38 38 38
3 5 5 6 4 3 6 5 8 11 5 5 4 6 6 6 5 4 4 3 2 3 5 4 5 5 9 6 3 3 5 9 14 17 13 14 22 29 34 37 38 41 42 43 46 48 51 52 51 48 43 37 32 29 26 21 17 13 10 9 11 12 13 15 17 19 21 23 25 26 28 29 30 32 34 35 36 38 39 40 40 40 40 40 40 39
2 4 6 8 5 5 5 2 6 9 4 4 6 6 5 5 4 4 3 2 2 2 9 7 7 5 8 4 2 2 3 9 12 13 11 11 17 24 28 32 35 37 39 41 44 47 49 51 51 47 41 36 33 30 26 21 17 13 10 10 11 12 13 15 17 19 21 22 24 26 28 30 31 33 34 36 37 38 39 41 41 41 41 42 42 41
1 2 1 4 5 5 5 3 2 4 4 6 7 5 5 5 4 3 2 3 3 5 10 7 12 8 6 3 6 4 5 9 9 8 8 9 14 20 23 26 29 33 37 40 42 44 46 47 48 45 41 37 34 30 26 21 17 13 11 10 11 13 14 16 17 19 20 22 24 26 28 30 32 33 35 37 38 39 40 41 42 43 43 43 43 43
3 1 2 3 4 6 7 5 3 4 4 5 4 4 4 4 3 4 4 4 0 7 6 3 7 8 8 7 5 6 7 8 9 7 7 8 13 19 20 21 23 27 33 37 40 42 44 45 46 45 42 38 35 31 27 21 16 13 12 11 11 13 15 16 18 19 21 22 24 26 28 29 31 33 36 38 39 40 41 42 43 44 45 45 45 45
3 5 3 1 3 6 6 4 3 4 3 5 4 4 3 3 3 4 3 1 3 7 3 0 2 5 11 11 8 9 11 9 9 10 10 10 14 21 21 19 20 24 30 35 38 41 43 46 48 48 44 40 36 32 26 21 16 14 13 12 12 13 15 17 18 19 21 22 24 26 27 29 31 33 35 37 38 40 41 42 44 45 46 47 47 47
4 4 1 2 3 8 10 5 3 2 2 6 5 4 4 2 0 3 4 2 5 6 3 2 2 3 9 9 12 17 17 15 15 16 16 17 21 24 22 18 19 23 28 33 36 39 43 47 50 50 46 41 37 31 25 20 17 14 13 13 12 13 15 17 18 20 21 22 23 25 27 29 31 33 35 36 38 39 40 42 44 45 46 47 47 48
4 7 4 5 2 8 11 5 4 5 4 5 4 5 5 5 4 5 4 4 7 6 4 2 1 4 5 4 7 12 13 17 20 21 20 23 26 24 21 19 20 24 28 31 34 38 42 46 50 51 47 42 37 31 25 21 17 15 14 13 13 13 15 17 18 19 20 21 23 24 26 28 31 33 35 36 37 39 40 42 44 45 45 46 47 48
4 8 5 0 1 7 7 2 5 6 3 2 3 4 3 4 5 3 3 4 1 5 5 3 3 7 4 5 6 5 6 11 15 16 17 24 26 20 19 22 23 26 29 31 34 37 41 45 49 50 46 41 36 30 25 21 18 16 14 13 13 14 15 16 18 19 20 21 22 24 26 28 31 33 35 36 37 39 40 42 43 44 45 45 46 47
2 6 3 3 2 2 2 1 2 2 3 2 3 4 4 4 5 2 3 1 4 2 6 2 5 9 5 7 8 5 7 10 8 8 14 20 20 16 20 26 26 28 30 31 34 36 40 45 48 49 45 40 36 30 25 21 18 16 14 13 13 14 15 16 17 18 19 21 23 24 26 29 31 33 35 37 38 39 40 41 42 43 44 45 45 47
4 4 3 3 1 1 0 0 1 1 4 5 3 5 3 2 4 3 1 3 3 3 6 3 9 13 9 7 2 5 6 10 8 9 12 15 14 15 24 29 28 29 29 30 32 35 40 45 48 48 44 40 35 29 24 20 18 16 14 13 13 13 15 15 17 18 20 22 23 25 27 29 31 33 34 36 38 39 40 41 42 43 44 44 45 46
3 3 4 2 2 2 2 1 0 1 2 5 3 3 2 3 2 2 2 2 2 3 6 8 10 13 10 9 5 4 9 9 9 10 11 11 12 18 26 30 27 27 28 30 33 36 40 45 48 48 44 39 34 28 24 21 18 16 14 13 13 13 14 15 16 18 20 22 24 26 28 30 31 33 34 36 37 39 40 41 42 43 44 45 45 46
3 2 4 1 2 1 2 2 5 3 1 2 1 3 1 2 4 3 3 3 3 3 6 7 9 14 10 7 7 9 10 10 9 9 10 12 16 22 28 29 27 28 30 32 34 37 41 45 48 47 44 38 32 27 24 21 18 15 14 13 12 13 13 15 17 19 20 22 24 26 28 30 32 33 35 36 37 39 40 40 42 43 44 45 45 46
3 3 4 1 2 1 3 6 9 10 7 5 3 3 2 1 2 1 1 2 4 4 4 3 7 17 10 5 8 9 8 11 10 9 10 12 18 25 28 29 29 30 32 33 35 37 40 44 47 45 41 35 31 27 24 20 17 15 13 12 12 12 13 15 17 19 21 23 25 27 29 30 32 33 35 36 37 38 40 40 42 43 44 45 45 46
3 3 5 4 2 5 5 3 3 6 7 8 8 8 8 6 4 1 5 2 3 4 5 4 6 18 11 5 6 7 7 9 10 11 12 11 18 25 26 27 29 31 33 34 35 37 39 44 46 44 40 35 32 28 24 20 17 15 13 12 11 12 13 15 17 19 21 23 25 27 29 31 32 33 35 36 37 38 40 41 41 42 44 45 46 46
4 2 4 6 6 5 4 2 0 2 2 3 5 5 6 7 7 6 8 5 2 2 1 4 3 18 13 5 5 6 7 8 12 13 10 11 18 22 22 25 28 31 33 33 34 36 39 43 46 44 39 35 32 27 23 19 17 14 13 11 11 12 14 15 18 20 22 24 26 28 29 31 32 34 35 37 38 39 40 41 42 42 44 45 46 47
3 2 4 6 5 3 3 3 2 2 2 2 6 4 6 8 8 8 6 3 3 3 3 4 3 18 14 3 4 3 3 6 11 12 10 12 18 21 22 24 28 30 32 32 33 36 38 42 44 43 40 36 32 27 22 19 16 14 12 11 11 12 14 16 18 20 23 25 27 28 30 31 33 34 36 37 38 39 40 41 42 43 44 45 46 47
6 2 3 3 6 5 4 3 2 2 1 4 5 5 8 11 8 2 1 2 4 7 8 5 9 19 12 2 5 1 0 4 9 12 14 15 18 20 23 25 27 29 30 32 34 35 38 42 45 44 41 37 31 26 22 19 16 13 12 11 12 12 14 16 19 21 23 26 27 29 30 31 33 35 36 37 38 40 41 42 43 43 43 44 45 47
9 3 6 7 9 10 10 7 4 3 3 2 4 6 11 15 12 6 3 4 8 8 10 9 17 18 16 9 1 2 4 7 9 11 15 18 20 22 23 25 27 29 31 33 34 36 40 44 46 45 41 36 31 26 22 18 15 13 12 11 12 13 15 17 19 21 24 26 28 29 31 32 34 36 37 38 39 41 42 43 43 44 44 44 45 47
4 2 9 13 14 14 15 10 4 6 5 5 9 12 14 15 15 11 7 7 10 7 7 16 23 19 24 25 13 7 10 11 12 13 13 17 22 24 26 27 28 29 31 33 35 37 40 45 46 45 40 35 30 25 21 18 15 13 12 12 13 14 15 17 19 22 25 27 29 30 32 34 36 37 39 39 40 42 43 44 44 44 44 44 45 47
2 5 14 17 18 18 18 13 6 8 7 10 11 15 17 15 15 13 13 16 15 8 9 22 25 19 26 31 23 18 19 18 18 16 13 17 23 26 28 27 26 28 30 32 34 38 42 46 47 44 39 34 29 24 21 17 14 13 12 12 13 14 16 18 20 23 25 27 29 31 33 35 37 38 39 40 41 42 43 44 44 43 44 44 45 47
2 9 15 15 18 19 20 15 8 8 9 9 11 16 17 14 15 17 22 25 18 11 16 25 25 22 26 28 24 21 19 17 20 22 18 17 22 24 24 24 26 29 31 32 36 40 43 46 46 44 39 33 29 24 20 17 14 13 12 12 13 14 16 18 20 23 25 28 30 32 34 36 38 39 40 41 42 42 43 43 43 43 43 44 45 47
3 8 14 14 14 17 20 17 8 9 11 11 13 20 18 13 16 22 28 24 17 18 25 27 25 25 28 26 22 24 25 22 25 29 25 21 22 22 23 25 28 31 32 34 38 41 44 45 45 43 38 33 29 24 20 17 14 13 13 12 12 14 15 18 20 23 26 28 30 33 35 36 38 39 40 41 41 42 42 42 43 43 43 44 46 47
5 7 8 8 9 15 20 16 9 11 13 13 18 26 22 13 17 25 26 16 13 20 27 25 23 25 27 24 21 26 29 25 24 27 28 28 28 24 25 28 29 31 33 35 38 40 42 43 43 42 38 33 29 24 19 17 15 14 13 12 12 14 15 18 21 23 25 28 31 33 35 37 39 40 40 41 40 40 41 41 42 42 43 44 46 47
5 4 2 1 6 14 15 9 8 9 7 11 21 30 26 20 20 23 19 13 15 20 22 20 19 22 23 20 18 21 22 19 18 21 24 29 30 26 27 30 31 32 34 36 37 39 41 44 44 43 39 33 28 23 19 17 15 14 13 12 12 13 15 18 20 23 26 28 31 33 36 37 39 40 40 39 39 39 40 40 41 41 43 44 46 48
5 5 4 4 8 13 9 2 7 5 2 10 20 24 25 24 22 19 17 18 20 19 16 16 20 22 19 16 17 21 20 16 17 20 22 25 27 28 30 33 34 34 35 36 37 40 43 45 46 44 39 32 27 23 19 17 15 14 12 12 12 13 15 18 20 23 26 28 31 34 36 38 39 39 38 38 38 38 39 39 40 41 43 45 47 48
5 7 7 5 7 10 4 4 6 3 9 14 10 9 15 20 20 19 20 23 23 20 17 19 24 23 17 16 20 21 20 22 27 27 23 22 26 30 32 34 34 35 35 35 36 40 43 45 45 42 36 31 27 22 19 17 16 14 12 11 12 13 15 18 20 23 26 29 31 34 36 38 38 37 37 36 37 37 37 38 39 40 43 45 47 48
7 9 6 5 5 4 3 4 3 9 14 10 6 3 9 13 14 16 19 24 26 24 21 24 28 25 20 21 23 22 25 33 38 33 25 25 30 32 31 33 34 33 34 34 36 39 43 45 45 42 36 31 26 22 19 18 15 13 11 11 11 13 16 18 20 23 26 29 32 34 36 37 36 35 35 35 36 36 36 37 38 40 43 45 46 47
10 8 4 5 5 1 3 7 10 12 10 11 16 14 7 2 2 7 14 20 24 23 19 21 26 26 21 21 26 30 30 32 33 32 31 36 36 32 32 34 34 33 34 35 37 40 43 46 47 43 37 30 25 22 20 17 15 12 11 10 11 13 16 18 21 24 26 29 32 34 35 35 34 34 34 34 35 35 35 36 37 39 42 45 46 46
11 9 5 7 8 6 8 10 10 12 12 16 23 17 5 5 5 6 10 18 25 21 15 17 23 25 20 18 25 29 23 16 18 24 35 42 37 32 33 34 32 31 32 33 35 39 41 44 44 39 33 28 24 22 20 16 14 11 10 10 11 13 16 18 21 24 27 30 32 33 33 32 33 33 33 33 34 35 35 36 37 39 41 44 46 46
13 11 10 10 8 8 9 10 9 10 12 20 22 8 5 8 11 9 6 17 26 17 11 16 22 22 17 16 17 13 6 6 8 16 29 34 27 24 29 31 30 29 30 32 34 37 39 41 40 35 30 27 24 22 19 16 13 11 10 10 11 13 16 19 22 25 27 30 32 31 30 30 31 31 31 32 33 34 34 35 37 38 40 43 45 46
14 11 10 10 8 8 10 10 11 11 12 17 14 2 4 7 9 8 3 15 19 8 13 17 20 18 15 14 10 6 4 4 8 13 23 25 17 17 24 28 28 27 28 31 33 35 40 42 39 34 30 26 24 21 18 15 13 10 9 10 11 13 16 19 22 25 28 30 30 28 28 29 29 29 30 31 31 32 33 34 36 37 39 41 43 45
10 8 8 9 10 12 12 11 9 7 9 12 7 1 6 12 15 7 8 15 10 6 16 18 15 17 16 11 9 8 6 10 10 12 17 17 12 14 19 24 27 27 28 30 31 34 40 42 38 33 29 26 24 21 18 15 12 10 9 9 11 13 16 20 23 25 28 28 27 26 26 27 27 27 28 29 31 31 31 32 34 37 39 40 42 44
6 7 8 10 13 14 14 13 10 6 9 11 5 10 12 12 10 4 15 13 3 3 13 17 16 20 18 12 12 10 15 23 20 14 13 12 10 13 17 21 24 25 27 30 33 37 40 39 35 31 28 26 23 20 17 14 11 10 9 9 11 14 17 20 23 25 27 26 24 24 24 24 25 26 26 28 30 31 30 30 32 35 38 39 42 44
5 5 6 9 11 11 12 12 8 7 11 9 11 17 16 8 3 14 20 14 6 6 12 16 18 21 21 20 21 21 24 29 26 18 15 13 12 15 19 22 25 27 29 32 36 39 41 38 33 30 28 25 23 19 16 14 12 10 9 9 12 14 17 20 23 25 25 23 22 22 21 22 23 24 25 26 29 30 30 30 31 34 36 38 41 43
9 6 5 8 9 8 8 9 7 9 13 15 17 11 9 8 14 22 20 15 15 16 16 18 21 22 22 24 29 30 26 24 22 20 18 16 15 17 21 24 28 31 34 37 40 41 39 36 33 31 28 25 22 19 16 14 12 10 8 9 12 14 17 20 22 23 22 21 21 20 19 20 21 22 24 25 28 30 30 31 31 33 35 37 39 42
8 7 6 7 8 7 7 10 11 11 11 27 25 10 15 30 41 37 21 14 21 25 21 21 25 27 27 28 30 30 27 24 23 22 21 19 20 21 24 27 31 34 38 41 43 41 38 35 33 31 28 25 22 19 17 14 11 8 8 10 12 14 17 20 21 21 20 19 19 18 17 18 19 21 23 25 27 29 30 31 32 32 34 36 37 40
13 16 14 10 9 10 10 11 12 11 13 31 33 25 31 48 57 49 30 20 23 26 23 24 29 32 32 31 29 28 28 28 27 26 25 26 26 27 29 32 34 38 41 43 42 40 36 33 31 30 28 25 22 19 17 14 10 8 8 10 11 13 17 19 19 19 17 18 18 16 16 16 17 19 22 24 26 29 31 32 32 33 34 36 37 38
17 19 16 9 7 10 11 9 8 8 10 25 38 42 42 43 44 43 38 31 30 31 28 30 34 34 32 31 29 28 30 32 31 29 28 28 29 31 33 36 39 42 44 44 42 39 36 33 31 29 27 25 23 20 16 12 9 8 9 10 11 13 16 18 17 16 16 16 16 15 15 16 16 17 20 22 25 27 29 31 32 32 34 36 36 37
12 14 13 9 7 9 11 13 17 18 15 22 34 42 43 42 40 38 37 36 38 40 37 36 37 35 31 31 31 32 34 33 32 31 31 31 33 36 38 41 44 46 45 43 42 39 36 34 32 30 28 25 22 19 15 12 10 9 8 9 11 14 16 16 15 15 14 14 14 14 15 16 17 17 19 21 24 26 28 30 30 31 32 35 37 38
11 14 12 10 11 13 14 16 18 19 20 25 33 34 36 42 44 40 38 38 39 41 39 38 38 35 32 34 35 35 34 34 35 35 35 35 37 40 42 44 46 47 45 42 40 38 36 35 33 31 28 25 21 18 14 12 10 9 8 9 11 13 15 15 14 13 13 13 12 13 14 16 17 18 19 20 22 25 28 31 32 31 30 31 34 36
7 11 10 9 12 14 15 15 14 12 11 18 30 38 44 48 46 41 41 42 41 39 39 39 39 39 39 39 38 36 35 36 37 38 38 39 41 43 45 47 47 47 45 43 39 36 34 34 32 30 27 24 21 17 14 12 10 8 8 9 11 13 14 14 13 12 12 11 11 12 13 15 17 19 21 21 21 22 23 27 31 32 29 28 29 30
6 8 8 7 11 13 13 15 18 15 11 15 30 44 50 51 48 42 40 42 44 45 45 43 41 41 40 40 39 38 39 40 40 40 40 42 43 45 47 49 49 48 45 42 39 36 34 33 31 29 26 23 20 16 14 12 10 8 8 9 10 12 13 12 12 11 10 10 10 11 12 14 16 18 20 23 24 23 21 21 24 28 29 28 27 26
12 14 11 10 14 17 18 23 24 18 13 21 37 48 48 48 47 44 43 46 50 51 49 45 42 41 41 41 41 41 42 43 41 41 42 43 44 46 48 50 51 49 46 43 40 38 36 34 32 29 26 23 20 16 14 12 10 8 8 8 10 11 11 11 10 10 9 9 10 11 12 14 16 18 20 22 24 26 26 24 22 23 25 27 27 26
Wind_Direction
91 231 220 220 228 229 222 189 175 173 151 149 157 196 235 246 269 255 230 282 32 234 265 245 236 254 261 270 269 232 216 223 227 230 231 225 220 220 219 221 221 221 223 220 216 217 217 216 215 216 219 221 225 230 237 242 251 262 272 286 300 312 321 324 326 328 328 329 329 328 328 329 330 330 330 328 325 323 323 323 324 324 323 323 322 322
76 218 232 226 221 210 196 163 132 125 119 112 175 234 266 234 259 269 255 312 340 181 266 268 249 257 255 263 275 246 207 223 225 224 232 225 221 224 222 224 225 224 224 218 215 215 215 215 214 216 219 221 225 230 237 243 251 260 271 287 302 315 322 326 327 328 328 328 329 328 328 329 329 329 328 327 325 322 321 321 322 322 322 321 321 321
5 244 242 222 183 112 91 117 114 116 122 113 151 204 278 245 271 291 313 354 354 181 268 290 272 262 257 258 267 254 227 237 236 230 236 230 222 225 225 227 227 224 222 218 215 214 213 215 214 216 219 221 225 230 237 243 250 260 273 289 305 317 322 325 326 327 328 327 327 328 327 327 328 328 326 326 325 323 322 323 323 323 322 321 321 321
246 254 246 187 141 110 80 96 106 97 126 158 157 182 258 264 296 286 308 342 302 228 270 288 280 264 255 250 259 259 247 249 250 243 243 237 230 232 233 233 229 225 222 218 216 214 213 213 213 216 219 220 222 227 235 242 249 260 274 290 306 317 321 323 324 325 326 326 326 326 325 325 326 326 325 325 326 324 323 324 324 323 323 322 322 323
237 246 165 122 126 132 130 141 138 148 253 247 202 204 240 255 235 234 291 328 311 303 318 307 292 271 243 238 253 269 263 258 255 246 243 239 236 239 239 237 234 229 226 221 217 214 213 213 214 217 218 219 222 227 234 241 247 258 272 290 306 314 318 321 322 324 324 324 325 324 324 324 323 323 324 324 324 323 322 322 322 322 322 322 322 322
258 227 144 129 106 133 152 194 192 174 214 293 231 211 226 241 245 259 330 349 350 322 334 9 317 284 199 222 258 282 294 273 259 234 238 238 235 235 237 237 235 232 229 226 221 217 215 215 215 216 217 219 222 226 233 240 245 255 269 288 303 310 314 318 320 322 323 323 324 324 324 324 323 324 325 324 322 321 319 319 319 319 320 320 320 320
261 128 122 142 147 145 168 231 230 170 147 294 250 201 208 208 210 265 350 359 295 262 297 54 298 272 266 189 254 262 261 273 271 249 244 242 235 232 235 237 234 231 229 226 223 219 217 216 215 215 217 219 221 225 232 238 242 251 266 285 298 304 310 316 319 321 322 323 323 324 324 324 324 325 325 324 322 321 319 319 319 319 320 320 319 320
150 101 72 108 124 140 181 239 224 156 135 241 230 131 129 133 158 189 126 245 243 277 299 174 181 273 278 236 244 252 259 276 275 268 260 246 238 236 238 239 235 233 231 226 222 220 218 217 217 217 218 219 221 225 231 236 240 248 262 281 292 300 308 314 318 320 321 322 322 323 323 323 323 323 323 323 321 320 320 319 319 319 320 321 320 320
135 160 183 145 125 180 202 228 191 159 156 238 195 117 111 123 147 150 131 225 279 11 293 219 156 275 273 244 265 288 256 261 263 262 261 246 239 240 242 241 238 236 234 229 226 223 220 219 218 219 219 220 221 225 231 235 238 246 258 274 287 297 306 312 316 319 320 321 321 322 321 321 321 321 321 321 320 319 319 318 319 319 319 320 320 321
106 173 194 152 154 215 210 230 179 168 188 186 139 99 72 77 81 86 120 182 42 346 267 229 165 239 272 224 159 66 222 238 250 256 261 256 246 245 245 244 240 237 234 232 229 227 224 221 219 218 219 219 221 225 230 233 237 244 254 270 284 295 304 311 315 318 320 320 320 320 320 320 320 320 320 319 318 318 318 317 318 318 319 320 320 320
29 91 198 172 188 186 139 89 102 128 139 132 109 70 40 41 53 47 69 82 47 273 268 234 179 197 277 240 176 185 205 207 219 243 263 267 259 254 251 248 242 238 235 233 229 227 225 221 218 217 218 219 221 224 227 230 235 243 253 267 283 293 302 310 314 317 319 319 319 319 320 320 320 320 320 319 318 318 318 318 318 318 319 320 319 318
348 133 239 227 187 136 101 77 59 68 106 115 85 62 24 343 19 18 355 49 24 254 275 273 187 190 245 249 203 226 243 211 199 222 243 251 261 262 259 254 247 242 238 232 227 224 221 218 214 214 217 218 219 222 224 228 234 242 254 267 281 293 302 309 313 316 318 318 318 319 319 319 320 321 320 319 319 319 319 319 319 320 320 319 318 318
299 227 233 206 186 162 121 78 29 8 57 101 91 85 57 327 351 345 310 91 229 249 265 267 179 214 245 246 229 238 252 236 212 218 230 245 264 268 266 259 251 244 238 232 227 222 219 216 213 213 215 215 217 220 222 227 233 241 254 268 282 293 301 308 312 315 317 317 318 318 318 320 321 320 319 318 318 319 319 320 320 320 320 319 319 319
290 288 176 155 238 190 165 157 209 249 144 149 146 132 144 142 69 274 272 279 270 270 267 184 163 256 270 260 227 225 232 229 225 232 243 257 265 268 269 264 255 247 240 234 228 223 221 217 214 214 214 214 216 219 222 226 233 242 254 269 283 294 301 307 311 313 315 316 317 317 319 321 321 319 318 318 318 318 320 320 320 320 319 319 319 319
246 286 210 177 217 179 180 193 165 141 142 174 153 135 159 156 168 223 231 244 273 292 276 225 183 234 264 285 224 221 234 235 237 244 253 260 262 265 268 261 251 246 240 234 228 225 223 218 215 214 213 214 217 219 222 226 233 242 255 270 284 294 301 306 309 312 314 315 316 318 321 322 319 318 317 317 318 319 320 319 318 318 319 319 318 318
219 267 248 173 67 156 178 205 114 112 133 194 122 118 186 186 169 209 212 195 251 322 283 221 220 231 240 288 258 235 253 242 240 249 253 256 259 260 259 252 246 243 237 231 227 225 222 217 214 214 213 215 217 218 221 226 234 244 257 271 284 294 299 304 307 310 313 313 316 320 322 320 317 316 317 317 319 319 319 318 318 318 318 318 318 317
198 272 296 32 17 139 160 205 115 137 181 160 144 177 214 186 133 137 264 35 65 302 273 237 253 273 301 288 256 207 228 241 242 250 248 252 256 253 249 248 244 241 236 232 229 226 221 217 214 214 214 215 215 217 221 227 236 246 258 271 283 293 298 303 306 309 312 314 318 321 320 317 316 316 317 317 318 318 318 318 319 319 318 318 317 316
186 264 298 90 213 259 52 349 20 43 141 133 185 212 195 133 96 106 239 345 35 250 273 280 267 279 288 284 294 121 201 242 241 241 246 252 252 242 245 247 243 240 237 233 231 226 221 217 214 213 213 215 216 217 222 228 236 246 258 270 282 291 296 302 305 309 312 315 320 320 318 316 316 316 317 317 318 318 319 320 320 319 318 317 317 316
162 240 292 97 202 268 28 51 240 342 122 135 200 229 126 144 166 116 153 231 246 233 270 282 283 278 256 250 269 185 200 228 234 237 246 250 240 235 242 246 241 237 234 231 228 224 220 217 214 213 213 213 215 216 221 228 236 247 258 269 281 290 295 300 304 307 312 316 319 318 316 316 316 317 317 318 318 319 320 321 321 319 318 317 317 318
128 198 265 261 241 278 49 184 191 196 98 91 285 311 10 166 178 165 153 180 185 199 264 291 301 281 250 210 237 227 199 203 216 228 239 239 233 231 238 242 237 233 233 230 228 224 222 218 214 212 212 212 212 216 221 228 235 246 257 268 280 288 293 299 303 307 313 317 317 315 315 316 317 317 318 319 320 321 322 321 320 319 318 318 319 319
106 191 231 256 324 238 191 209 197 188 176 167 200 227 235 177 112 195 219 142 141 179 239 271 282 276 266 165 209 221 187 194 202 212 232 236 232 234 238 241 238 236 236 233 230 227 222 217 212 211 211 211 213 217 221 226 234 243 255 267 278 285 292 298 303 308 314 315 315 315 316 317 317 318 319 321 322 322 322 321 320 319 319 319 320 320
152 186 208 193 227 220 213 232 209 194 178 177 195 196 194 175 120 205 246 211 161 185 205 181 254 273 272 140 188 208 177 191 200 212 233 230 227 235 241 242 240 240 239 235 231 227 221 215 210 208 208 210 213 216 219 224 233 242 253 265 274 282 290 297 303 309 312 313 314 315 316 317 318 320 320 322 323 323 322 321 320 320 320 320 322 322
116 118 218 229 229 224 245 307 215 203 160 184 217 195 179 171 153 192 226 220 189 203 190 114 260 271 268 123 142 196 188 211 215 216 230 225 226 238 243 242 241 240 239 236 230 226 221 213 208 206 207 209 212 215 219 224 231 241 252 264 271 281 290 297 303 308 310 312 313 315 317 319 320 321 322 323 324 323 322 321 321 322 322 323 324 323
94 121 225 254 281 327 342 348 41 51 73 227 240 184 170 200 196 203 216 177 158 207 177 102 244 261 268 82 113 193 180 233 234 223 225 229 233 241 243 241 241 239 236 232 228 224 218 211 206 205 207 210 212 214 217 222 231 241 253 262 271 280 289 296 303 307 310 312 314 316 319 321 321 322 323 323 324 323 322 322 323 324 325 325 324 322
169 180 183 241 292 303 308 325 348 324 203 220 239 190 197 219 207 180 75 124 231 217 163 144 242 252 263 60 91 63 306 256 252 233 227 234 238 241 243 243 241 236 231 228 224 220 214 208 205 207 209 209 210 212 215 222 231 241 252 261 270 280 288 297 304 308 311 313 315 318 320 321 322 323 324 325 325 325 324 324 325 325 326 325 324 322
175 190 175 203 236 240 246 250 231 218 188 214 245 208 212 216 201 201 214 189 233 217 154 195 243 254 267 263 141 36 269 252 256 244 235 239 243 244 245 244 239 233 229 226 221 217 212 208 206 207 208 208 208 210 215 221 230 241 251 259 269 280 289 299 306 310 313 315 317 320 321 323 324 325 326 327 327 326 326 325 326 326 327 326 324 322
160 211 199 215 226 228 241 245 176 127 146 200 224 217 217 215 204 214 229 210 223 215 181 228 244 258 270 266 260 265 262 260 264 261 251 244 245 248 248 246 240 234 230 225 220 216 211 206 206 207 207 206 207 209 215 222 230 239 247 256 269 282 291 301 308 311 314 316 319 322 324 325 326 327 328 329 329 328 326 326 326 326 327 327 324 323
116 231 219 228 232 235 249 246 172 141 190 208 213 223 224 215 203 210 228 227 220 213 230 243 246 252 262 264 267 268 267 270 269 268 264 253 250 252 249 244 237 231 227 222 217 215 210 206 205 206 204 204 205 209 214 221 230 236 243 255 269 284 294 303 310 312 315 319 322 324 326 327 328 329 330 330 330 328 326 325 326 327 328 327 324 324
160 233 232 233 238 244 253 247 184 168 228 226 215 230 228 209 200 212 229 232 221 216 240 247 248 252 257 261 265 265 263 266 271 278 281 267 258 254 245 237 232 229 224 219 218 216 211 207 205 203 202 202 205 209 214 220 227 232 241 256 270 284 296 305 310 314 318 322 325 327 328 328 329 330 331 331 329 327 325 326 327 328 329 327 326 327
171 237 241 239 247 251 251 247 201 188 241 251 243 246 236 202 200 221 233 233 223 229 242 250 255 258 259 260 263 266 268 271 277 283 283 272 262 254 241 234 233 230 224 223 224 219 211 207 204 202 201 202 205 209 213 219 224 230 241 256 271 285 297 306 312 316 321 325 327 328 329 329 330 331 331 330 328 326 326 328 329 330 329 328 328 330
203 236 246 240 254 255 252 250 212 202 234 248 254 257 249 219 214 232 239 234 226 238 246 253 261 261 260 262 264 269 273 276 277 277 274 270 265 254 241 238 235 231 229 230 226 218 210 206 203 202 201 203 206 208 212 218 222 229 241 256 271 287 300 307 313 319 323 326 328 329 329 330 331 331 330 329 327 327 328 330 331 331 330 330 331 333
203 231 271 197 242 254 256 247 201 201 230 247 253 256 250 237 231 237 242 228 220 237 248 254 257 256 260 267 270 270 270 267 266 265 265 266 263 251 240 240 238 234 234 232 224 214 209 206 203 202 203 203 204 207 212 216 220 228 242 257 273 290 302 308 315 321 325 327 328 329 330 330 330 330 329 329 328 329 331 332 332 332 331 332 334 336
181 207 225 194 232 255 262 185 151 149 201 248 248 247 244 244 242 242 248 238 225 228 238 245 248 250 261 273 271 270 269 261 259 260 260 261 259 252 245 242 241 240 239 233 223 215 210 207 204 203 202 201 202 207 211 214 219 229 242 260 277 292 303 310 318 323 325 328 329 329 330 329 330 330 329 329 330 331 333 334 333 334 334 334 337 339
187 213 219 197 234 254 237 120 110 157 231 242 247 232 232 241 241 238 244 244 236 228 227 240 252 257 264 267 262 266 270 269 269 270 269 266 258 252 248 245 244 243 240 232 223 216 211 206 202 201 200 200 203 205 207 211 219 230 243 262 281 294 304 313 319 324 326 328 329 329 330 329 329 329 329 330 331 333 334 335 336 337 337 337 339 341
192 211 214 207 239 252 149 129 172 225 231 251 304 264 220 228 230 231 240 245 244 238 232 241 253 256 255 256 259 264 267 272 277 280 281 275 263 254 249 248 246 240 234 227 219 214 210 204 200 198 197 199 201 202 205 209 218 231 246 266 284 295 307 315 320 325 327 328 329 329 329 329 329 329 330 331 333 334 336 338 339 339 339 339 340 341
201 204 200 212 222 196 169 199 228 251 272 304 296 271 236 197 204 233 251 254 249 243 233 238 250 254 251 254 259 262 265 275 282 283 279 275 267 257 249 248 247 240 234 230 223 218 212 205 200 198 196 196 198 200 204 209 218 232 248 268 286 299 310 317 321 325 327 328 330 330 329 329 329 329 331 333 334 336 338 340 341 341 340 340 341 342
211 207 207 221 215 215 232 228 243 279 298 286 273 263 205 148 171 202 250 264 261 249 225 228 249 253 249 249 255 259 267 286 290 280 276 274 269 260 253 250 249 244 238 232 225 218 211 203 197 196 195 195 196 199 202 208 218 232 250 270 288 302 312 318 321 325 328 329 329 330 330 329 329 330 333 335 335 337 341 343 343 342 342 341 341 343
215 213 213 225 220 217 238 245 249 259 257 254 258 255 144 180 195 182 211 262 269 257 193 206 241 248 246 248 249 248 261 291 281 271 272 273 270 259 250 243 241 240 232 223 215 208 201 195 192 193 194 194 195 196 200 208 218 231 251 272 291 305 311 318 322 325 328 329 330 331 331 329 330 332 335 337 338 340 343 345 344 343 343 342 342 343
218 222 222 230 231 224 232 240 239 237 244 254 261 274 126 162 146 121 197 259 268 241 170 200 231 237 239 240 219 164 139 240 258 262 267 273 274 258 243 234 230 229 222 219 216 206 194 189 189 191 191 192 194 195 200 208 218 232 252 274 293 305 311 318 323 326 328 329 331 332 330 329 331 334 336 338 339 342 346 347 345 344 344 343 343 344
209 218 223 227 231 230 230 236 241 241 252 261 266 158 145 135 118 106 265 262 262 173 173 194 215 226 231 217 178 155 176 217 244 268 267 267 265 247 235 229 227 221 212 210 208 201 192 188 189 190 189 191 194 195 200 208 216 233 254 276 294 305 313 319 324 327 328 330 332 331 329 330 333 336 338 339 340 344 348 348 346 345 344 344 344 345
195 207 211 217 227 228 227 236 245 245 251 252 205 148 144 120 106 227 253 255 273 163 187 190 203 223 222 188 166 190 217 224 237 262 264 252 243 229 220 220 221 217 211 204 196 192 190 187 188 189 188 190 193 195 201 208 218 236 256 280 295 306 315 321 325 327 327 330 331 329 330 332 334 337 340 341 342 345 349 350 348 346 346 345 345 347
183 191 196 210 225 224 226 239 247 250 246 223 152 151 158 136 186 237 240 246 256 239 215 204 210 220 212 194 198 215 227 230 235 246 248 239 228 216 207 203 202 199 199 195 188 187 188 185 185 187 187 188 192 195 201 209 221 237 257 282 296 307 317 323 326 327 327 330 329 327 330 334 336 339 342 344 344 345 349 353 352 348 347 348 348 350
178 179 197 203 207 210 226 230 229 252 233 173 142 148 171 187 232 239 240 247 248 238 225 217 222 223 212 209 216 223 229 233 231 232 234 229 222 216 208 203 200 195 191 187 184 185 187 187 185 185 186 188 191 196 202 211 223 236 258 283 296 309 320 323 325 326 327 328 326 327 332 337 339 341 344 347 347 347 350 354 355 352 349 351 353 353
170 182 207 205 193 192 212 207 208 243 206 161 157 184 204 210 230 241 239 239 243 238 227 222 231 235 228 225 227 225 224 225 223 222 221 217 215 211 204 200 198 193 188 185 184 184 186 188 187 185 186 189 191 197 205 213 224 237 261 283 299 313 321 324 325 326 326 324 322 327 336 341 343 343 347 351 350 348 351 354 357 355 351 354 358 356
193 200 212 216 201 197 214 214 211 232 200 177 186 212 215 216 229 239 239 238 241 238 230 229 237 241 237 233 230 224 222 221 219 218 216 214 210 203 198 197 195 191 188 185 184 184 185 188 189 186 187 189 191 199 207 212 222 240 264 285 303 315 320 322 323 323 323 320 320 328 338 343 346 347 351 355 353 350 352 354 358 358 354 356 1 1
210 212 220 226 213 214 238 251 238 233 199 189 206 224 229 229 234 238 238 239 241 242 240 239 243 245 242 234 226 221 224 223 217 214 214 212 207 200 196 193 190 189 187 184 184 184 184 185 188 188 189 191 194 200 206 210 221 243 266 288 305 315 318 320 320 320 320 317 320 331 339 342 348 354 358 359 356 353 354 356 359 1 358 358 1 4
222 221 225 221 205 211 232 238 233 232 217 201 214 228 237 241 242 240 238 238 240 244 245 245 248 249 245 237 230 226 227 222 213 209 208 206 202 198 194 191 188 188 188 187 186 185 184 186 188 189 191 194 196 199 204 209 223 244 268 289 305 314 317 317 317 317 316 316 323 333 339 342 350 358 4 5 1 357 355 357 2 6 4 1 0 4
211 206 211 217 214 219 231 233 233 237 231 221 224 232 240 244 243 241 241 241 242 244 245 245 247 246 243 241 236 228 224 219 212 208 206 203 201 198 195 193 190 188 188 188 187 187 187 189 190 191 194 196 197 198 202 209 224 245 268 290 305 313 314 314 314 313 313 317 326 335 341 345 351 358 5 9 9 4 358 356 1 9 11 8 5 5
171 184 186 200 217 231 244 247 248 255 251 237 235 236 238 243 244 241 241 242 242 243 245 245 246 246 244 242 236 226 219 217 215 212 208 203 200 198 196 195 192 190 189 189 188 189 190 191 192 194 195 196 197 198 202 212 226 244 268 291 306 311 310 309 310 311 311 317 328 338 343 348 354 359 2 6 10 14 10 1 359 3 10 14 13 12
155 198 184 186 220 231 234 234 236 240 241 240 241 240 239 242 243 242 240 240 240 241 241 241 243 243 241 239 235 227 221 217 215 211 209 206 204 202 198 195 192 191 190 188 188 188 190 191 193 195 195 196 198 200 206 216 228 245 269 291 304 306 305 304 304 306 309 315 329 340 344 350 358 1 2 2 4 9 16 16 7 3 5 11 14 15
200 210 198 203 227 231 226 224 227 231 235 240 244 246 245 243 241 238 236 237 238 239 238 236 236 235 233 233 232 228 223 220 214 209 207 207 207 205 200 196 194 192 189 189 188 187 188 190 193 194 195 196 198 203 210 219 229 247 268 289 300 300 297 297 297 298 304 315 331 342 345 351 359 3 4 4 2 2 5 11 15 13 10 9 10 12
Height
1523 1524 1523 1521 1519 1518 1519 1522 1522 1524 1527 1528 1530 1531 1531 1532 1527 1521 1522 1522 1523 1522 1515 1513 1513 1509 1502 1495 1492 1494 1496 1494 1492 1492 1491 1491 1492 1492 1492 1491 1491 1490 1491 1496 1499 1499 1499 1499 1501 1501 1502 1502 1502 1503 1503 1503 1503 1503 1503 1502 1502 1501 1501 1501 1500 1499 1498 1497 1496 1496 1495 1494 1493 1491 1490 1489 1487 1486 1485 1483 1482 1480 1478 1477 1475 1473
1523 1524 1520 1517 1517 1518 1520 1523 1525 1525 1527 1528 1529 1530 1530 1533 1527 1518 1521 1523 1523 1523 1514 1510 1512 1506 1499 1494 1489 1491 1492 1487 1486 1487 1484 1485 1487 1486 1487 1486 1485 1487 1490 1494 1496 1496 1496 1496 1497 1498 1498 1498 1499 1500 1500 1500 1501 1500 1500 1500 1499 1498 1498 1497 1497 1496 1495 1494 1492 1492 1490 1490 1489 1487 1486 1485 1484 1483 1482 1481 1479 1478 1476 1474 1473 1471
1525 1521 1515 1516 1519 1521 1523 1525 1525 1524 1527 1528 1530 1532 1529 1529 1525 1518 1521 1524 1524 1523 1514 1511 1511 1502 1495 1493 1486 1483 1484 1479 1478 1479 1477 1479 1482 1481 1480 1480 1481 1484 1486 1488 1490 1491 1492 1492 1493 1494 1494 1495 1496 1497 1497 1497 1498 1497 1497 1497 1496 1496 1495 1495 1494 1493 1492 1491 1490 1488 1487 1486 1485 1483 1482 1481 1480 1479 1478 1477 1476 1474 1473 1471 1469 1467
1522 1516 1514 1518 1519 1518 1522 1525 1524 1524 1527 1527 1529 1530 1525 1525 1525 1519 1520 1524 1523 1521 1516 1514 1509 1495 1489 1488 1481 1475 1475 1475 1473 1473 1473 1474 1475 1473 1473 1474 1476 1478 1479 1482 1484 1486 1487 1488 1489 1489 1490 1491 1492 1493 1494 1494 1495 1494 1494 1494 1494 1493 1493 1492 1491 1490 1489 1488 1487 1486 1485 1483 1482 1480 1479 1477 1475 1474 1473 1473 1472 1470 1469 1467 1465 1462
1516 1514 1517 1519 1518 1517 1520 1524 1524 1523 1524 1525 1526 1526 1521 1521 1523 1521 1523 1524 1521 1519 1520 1515 1495 1477 1480 1483 1475 1472 1473 1471 1470 1470 1469 1469 1469 1470 1470 1471 1471 1472 1474 1476 1478 1480 1481 1483 1484 1485 1487 1488 1489 1490 1491 1492 1492 1492 1491 1491 1491 1491 1490 1490 1489 1488 1486 1485 1484 1483 1482 1481 1479 1478 1476 1473 1472 1471 1470 1469 1468 1467 1465 1463 1461 1459
1513 1514 1517 1517 1518 1518 1518 1520 1521 1521 1523 1523 1520 1520 1518 1517 1520 1523 1526 1525 1520 1516 1519 1518 1496 1472 1476 1481 1473 1471 1472 1468 1467 1466 1464 1463 1465 1467 1467 1466 1467 1469 1471 1473 1474 1476 1477 1478 1480 1482 1483 1484 1485 1487 1488 1489 1489 1489 1489 1488 1488 1488 1488 1487 1486 1485 1484 1482 1481 1479 1478 1476 1475 1474 1473 1471 1469 1469 1467 1466 1465 1464 1463 1461 1459 1457
1513 1515 1517 1516 1517 1518 1518 1519 1519 1520 1523 1522 1517 1518 1520 1520 1522 1524 1525 1524 1520 1517 1519 1523 1513 1487 1474 1473 1469 1468 1468 1466 1465 1462 1460 1460 1461 1462 1460 1460 1463 1464 1466 1468 1470 1472 1473 1474 1476 1477 1478 1480 1482 1484 1485 1486 1486 1486 1486 1486 1486 1485 1485 1484 1483 1482 1481 1479 1478 1476 1474 1473 1471 1469 1468 1467 1466 1465 1463 1462 1461 1459 1458 1457 1455 1453
1511 1514 1516 1516 1516 1518 1517 1514 1516 1519 1520 1519 1518 1521 1520 1521 1523 1523 1525 1525 1523 1524 1522 1521 1522 1506 1482 1472 1468 1465 1466 1467 1463 1458 1455 1456 1456 1456 1455 1455 1457 1458 1459 1462 1464 1466 1468 1469 1471 1472 1474 1476 1479 1481 1481 1482 1483 1483 1483 1483 1483 1482 1482 1481 1480 1479 1478 1476 1474 1473 1471 1470 1469 1466 1465 1463 1463 1461 1459 1458 1456 1454 1453 1452 1450 1448
1508 1511 1512 1513 1514 1515 1512 1509 1512 1515 1515 1516 1521 1523 1521 1522 1524 1524 1526 1526 1528 1531 1519 1513 1523 1512 1480 1468 1470 1469 1470 1468 1459 1451 1449 1449 1451 1450 1450 1451 1452 1453 1455 1457 1458 1460 1462 1464 1466 1468 1471 1474 1476 1477 1478 1479 1480 1480 1480 1480 1479 1479 1478 1478 1477 1476 1475 1473 1471 1469 1468 1467 1466 1464 1462 1461 1459 1458 1455 1453 1452 1450 1448 1447 1445 1444
1507 1509 1509 1510 1509 1507 1508 1511 1514 1513 1512 1516 1522 1523 1523 1526 1527 1528 1527 1525 1530 1527 1506 1502 1516 1506 1470 1455 1467 1473 1470 1464 1454 1446 1444 1444 1446 1445 1445 1447 1448 1450 1452 1453 1455 1456 1458 1461 1464 1467 1470 1472 1473 1474 1475 1475 1476 1477 1477 1477 1476 1476 1475 1475 1474 1473 1472 1470 1468 1467 1465 1463 1462 1461 1459 1458 1456 1455 1452 1450 1448 1446 1444 1442 1440 1439
1508 1510 1510 1508 1505 1504 1508 1514 1516 1515 1515 1517 1520 1519 1520 1525 1528 1532 1531 1528 1526 1509 1492 1496 1504 1501 1478 1454 1456 1460 1452 1448 1445 1442 1442 1442 1441 1442 1442 1443 1444 1446 1447 1449 1451 1453 1456 1460 1463 1466 1467 1468 1469 1470 1471 1472 1473 1473 1473 1474 1473 1472 1472 1471 1470 1469 1468 1467 1465 1463 1462 1460 1459 1457 1455 1454 1452 1451 1448 1446 1443 1441 1439 1437 1436 1434
1508 1508 1507 1504 1502 1504 1507 1512 1515 1518 1518 1517 1517 1516 1516 1520 1523 1527 1528 1528 1519 1494 1489 1504 1506 1504 1485 1452 1446 1448 1439 1439 1438 1435 1437 1438 1438 1438 1438 1440 1441 1442 1443 1445 1447 1449 1453 1457 1460 1462 1463 1464 1466 1466 1467 1468 1469 1470 1470 1471 1470 1469 1468 1467 1467 1466 1465 1464 1462 1460 1459 1457 1456 1454 1452 1450 1448 1446 1444 1441 1438 1436 1434 1432 1431 1429
1502 1501 1503 1502 1501 1504 1503 1508 1516 1517 1517 1516 1517 1519 1521 1522 1521 1517 1515 1518 1511 1493 1497 1511 1508 1498 1472 1442 1441 1444 1436 1436 1435 1432 1433 1434 1435 1435 1436 1438 1438 1440 1440 1440 1443 1445 1448 1451 1453 1456 1457 1459 1461 1462 1464 1465 1465 1466 1466 1467 1467 1466 1465 1464 1463 1462 1462 1461 1459 1457 1456 1454 1453 1451 1450 1447 1445 1443 1440 1437 1434 1431 1429 1427 1425 1423
1495 1496 1501 1500 1497 1499 1498 1501 1506 1509 1513 1515 1514 1516 1518 1522 1521 1513 1511 1512 1502 1492 1500 1511 1503 1482 1453 1432 1432 1432 1428 1429 1430 1430 1431 1431 1432 1432 1433 1436 1436 1437 1437 1437 1439 1441 1443 1446 1448 1450 1453 1455 1457 1459 1461 1462 1462 1463 1463 1463 1463 1462 1461 1460 1460 1459 1458 1457 1456 1455 1453 1451 1449 1448 1447 1445 1442 1440 1437 1434 1430 1428 1426 1423 1420 1418
1497 1489 1491 1493 1490 1493 1494 1494 1495 1500 1510 1513 1511 1512 1511 1510 1508 1500 1499 1498 1490 1488 1500 1508 1494 1463 1436 1424 1422 1423 1424 1426 1427 1428 1430 1429 1430 1430 1431 1433 1433 1433 1433 1434 1436 1438 1439 1442 1444 1446 1449 1451 1454 1456 1457 1458 1459 1459 1459 1459 1459 1459 1458 1457 1456 1456 1455 1454 1454 1452 1450 1448 1447 1445 1443 1441 1439 1436 1434 1431 1428 1425 1423 1420 1417 1414
1503 1488 1485 1492 1490 1492 1494 1494 1497 1499 1504 1511 1513 1513 1507 1500 1496 1495 1499 1501 1502 1502 1499 1495 1477 1446 1429 1423 1421 1425 1425 1424 1426 1427 1429 1428 1426 1429 1429 1429 1429 1429 1430 1431 1432 1434 1436 1439 1441 1443 1445 1448 1451 1453 1453 1455 1455 1455 1456 1456 1455 1455 1454 1454 1453 1453 1452 1451 1451 1449 1447 1446 1444 1442 1440 1438 1436 1433 1430 1428 1425 1422 1419 1416 1413 1410
1495 1486 1489 1496 1492 1495 1496 1494 1498 1495 1495 1508 1511 1504 1502 1501 1496 1495 1503 1512 1518 1508 1486 1476 1462 1438 1429 1421 1416 1424 1424 1422 1427 1427 1426 1425 1424 1427 1426 1424 1426 1425 1426 1427 1428 1430 1432 1435 1438 1440 1442 1445 1447 1449 1450 1451 1452 1452 1452 1452 1452 1452 1451 1451 1451 1450 1450 1448 1447 1446 1444 1443 1441 1439 1437 1434 1432 1430 1427 1425 1421 1418 1415 1412 1409 1406
1482 1481 1488 1495 1491 1495 1498 1495 1498 1497 1495 1502 1503 1496 1498 1503 1500 1499 1504 1508 1513 1508 1483 1467 1457 1439 1432 1422 1413 1422 1423 1419 1425 1424 1422 1423 1422 1423 1421 1419 1422 1421 1423 1425 1425 1428 1429 1431 1434 1436 1439 1442 1443 1446 1447 1448 1448 1448 1449 1449 1449 1449 1449 1448 1448 1447 1447 1445 1443 1443 1441 1440 1438 1436 1434 1431 1428 1426 1423 1420 1417 1414 1410 1408 1405 1401
1479 1479 1486 1498 1496 1494 1498 1496 1495 1496 1497 1496 1495 1496 1495 1495 1497 1503 1507 1500 1500 1504 1483 1461 1453 1435 1421 1417 1410 1414 1417 1414 1418 1420 1419 1420 1419 1418 1417 1416 1418 1419 1420 1421 1422 1424 1425 1427 1430 1432 1436 1438 1440 1443 1444 1444 1445 1445 1446 1446 1446 1446 1446 1446 1445 1444 1444 1442 1441 1440 1438 1437 1435 1432 1430 1427 1425 1422 1419 1416 1413 1409 1406 1402 1400 1396
1477 1477 1480 1494 1499 1495 1496 1495 1489 1490 1498 1499 1496 1498 1495 1491 1492 1495 1501 1496 1490 1493 1479 1463 1454 1420 1394 1402 1403 1402 1410 1411 1412 1415 1414 1414 1413 1412 1412 1412 1414 1415 1415 1416 1417 1419 1421 1423 1426 1429 1432 1435 1438 1440 1441 1441 1442 1442 1443 1443 1443 1444 1443 1443 1443 1441 1441 1439 1438 1437 1435 1433 1431 1429 1426 1423 1421 1418 1415 1412 1408 1405 1401 1397 1394 1391
1476 1477 1475 1488 1501 1496 1485 1480 1474 1472 1483 1492 1493 1496 1494 1494 1497 1494 1496 1495 1487 1487 1481 1476 1463 1412 1379 1393 1398 1395 1405 1407 1407 1410 1407 1407 1407 1407 1408 1408 1410 1411 1411 1412 1413 1414 1417 1420 1424 1427 1430 1433 1435 1436 1437 1438 1439 1439 1440 1440 1441 1441 1441 1440 1440 1438 1437 1436 1435 1434 1432 1430 1427 1425 1422 1420 1417 1414 1411 1407 1404 1400 1396 1392 1389 1386
1471 1474 1470 1477 1487 1481 1468 1467 1470 1467 1469 1475 1476 1479 1480 1483 1492 1490 1489 1489 1485 1482 1474 1473 1466 1415 1378 1390 1395 1394 1403 1403 1403 1405 1400 1402 1403 1402 1404 1405 1405 1407 1406 1408 1409 1411 1414 1417 1420 1424 1427 1430 1431 1432 1434 1435 1436 1436 1437 1438 1438 1438 1438 1437 1436 1436 1434 1433 1432 1431 1428 1426 1424 1421 1418 1416 1413 1410 1407 1403 1400 1396 1391 1387 1384 1381
1465 1470 1469 1465 1464 1467 1468 1470 1474 1471 1469 1472 1470 1469 1471 1474 1478 1475 1473 1475 1479 1480 1471 1476 1475 1421 1377 1387 1396 1393 1399 1398 1398 1400 1396 1398 1400 1399 1401 1401 1402 1403 1403 1405 1407 1408 1411 1413 1417 1421 1423 1425 1427 1429 1431 1432 1433 1434 1434 1435 1435 1435 1435 1434 1433 1433 1431 1431 1429 1427 1425 1422 1420 1417 1414 1412 1409 1406 1403 1399 1395 1391 1387 1383 1379 1375
1465 1468 1468 1462 1457 1463 1471 1473 1473 1473 1472 1471 1467 1468 1469 1466 1462 1461 1463 1466 1469 1470 1470 1483 1480 1422 1377 1388 1397 1392 1397 1397 1394 1396 1396 1396 1396 1396 1398 1398 1398 1399 1400 1402 1404 1405 1409 1411 1415 1417 1418 1421 1423 1425 1427 1428 1430 1431 1431 1432 1432 1432 1432 1431 1430 1430 1428 1427 1426 1423 1421 1419 1416 1413 1410 1408 1405 1402 1398 1394 1390 1387 1383 1379 1375 1371
1461 1463 1466 1469 1464 1461 1463 1465 1469 1472 1472 1466 1460 1462 1463 1459 1460 1464 1467 1471 1464 1455 1462 1476 1458 1406 1378 1391 1397 1392 1395 1395 1392 1394 1394 1393 1394 1394 1394 1394 1395 1396 1397 1399 1400 1402 1406 1408 1410 1412 1413 1416 1419 1421 1424 1425 1426 1427 1428 1428 1429 1429 1429 1428 1427 1427 1425 1424 1422 1420 1418 1415 1413 1410 1407 1404 1401 1397 1394 1390 1386 1383 1379 1375 1371 1367
1451 1454 1456 1462 1462 1456 1448 1443 1448 1457 1465 1464 1457 1457 1457 1456 1461 1460 1460 1468 1459 1447 1457 1457 1424 1390 1381 1388 1392 1393 1394 1392 1391 1392 1391 1391 1391 1391 1391 1391 1391 1392 1393 1394 1396 1398 1401 1403 1405 1407 1409 1413 1416 1418 1420 1422 1423 1424 1425 1425 1425 1426 1425 1425 1424 1423 1421 1420 1418 1416 1414 1411 1409 1405 1402 1400 1396 1393 1389 1385 1382 1378 1375 1371 1366 1362
1446 1447 1444 1441 1440 1437 1428 1425 1436 1446 1451 1453 1449 1447 1449 1450 1454 1454 1454 1456 1448 1444 1450 1431 1404 1397 1391 1380 1383 1392 1391 1389 1388 1387 1387 1388 1388 1388 1388 1387 1387 1388 1389 1391 1393 1395 1397 1399 1401 1403 1406 1409 1412 1415 1417 1418 1420 1421 1421 1422 1422 1422 1422 1422 1421 1419 1418 1416 1414 1412 1410 1407 1404 1401 1398 1395 1391 1388 1384 1381 1377 1373 1370 1367 1362 1358
1443 1441 1436 1432 1429 1425 1419 1422 1435 1439 1435 1439 1441 1438 1440 1444 1449 1454 1449 1438 1434 1441 1437 1411 1401 1409 1394 1375 1380 1388 1385 1384 1381 1379 1382 1383 1382 1383 1383 1382 1384 1385 1386 1388 1390 1391 1392 1394 1397 1400 1403 1406 1409 1411 1413 1415 1417 1418 1418 1418 1419 1419 1418 1418 1417 1416 1414 1413 1410 1408 1405 1402 1400 1397 1394 1391 1387 1384 1380 1377 1373 1369 1366 1363 1358 1353
1440 1434 1428 1429 1429 1425 1420 1423 1433 1433 1428 1430 1433 1430 1431 1437 1444 1446 1435 1422 1425 1432 1418 1396 1399 1404 1386 1373 1378 1380 1379 1379 1375 1374 1378 1378 1377 1378 1378 1379 1380 1380 1382 1384 1385 1386 1388 1390 1393 1396 1399 1402 1405 1408 1410 1412 1413 1414 1415 1415 1416 1416 1415 1414 1413 1412 1411 1409 1406 1404 1401 1398 1396 1393 1390 1387 1383 1380 1377 1373 1369 1365 1362 1358 1353 1348
1439 1430 1424 1427 1428 1424 1421 1422 1429 1434 1430 1428 1428 1422 1421 1430 1437 1432 1419 1413 1421 1422 1404 1394 1400 1394 1373 1366 1372 1371 1372 1375 1373 1372 1373 1373 1373 1374 1374 1374 1374 1375 1377 1378 1379 1381 1384 1387 1390 1393 1396 1399 1402 1404 1407 1408 1410 1411 1412 1412 1412 1412 1412 1411 1410 1409 1407 1405 1402 1399 1397 1394 1392 1389 1387 1383 1380 1376 1372 1369 1365 1361 1357 1353 1348 1343
1438 1429 1424 1427 1428 1421 1416 1418 1426 1430 1428 1428 1424 1412 1411 1424 1428 1417 1407 1411 1421 1417 1402 1401 1406 1388 1361 1359 1369 1369 1369 1373 1372 1369 1368 1368 1369 1369 1369 1369 1369 1370 1372 1373 1375 1378 1381 1384 1387 1390 1393 1396 1398 1401 1403 1405 1407 1408 1408 1409 1409 1409 1408 1407 1407 1405 1403 1401 1398 1395 1393 1391 1388 1386 1383 1380 1376 1373 1369 1365 1361 1357 1353 1348 1343 1338
1437 1433 1427 1429 1430 1419 1411 1418 1425 1426 1429 1432 1420 1403 1402 1411 1409 1401 1399 1406 1410 1407 1403 1408 1403 1376 1353 1357 1367 1366 1365 1369 1367 1363 1363 1362 1362 1364 1363 1363 1364 1365 1366 1368 1371 1374 1377 1379 1382 1385 1388 1392 1395 1398 1400 1401 1403 1404 1405 1406 1406 1405 1405 1404 1403 1402 1399 1397 1394 1392 1390 1387 1385 1382 1379 1376 1373 1369 1365 1362 1358 1353 1349 1344 1339 1333
1433 1430 1426 1429 1429 1417 1415 1422 1424 1427 1434 1425 1401 1386 1390 1394 1392 1392 1393 1392 1393 1396 1399 1395 1376 1355 1352 1361 1363 1359 1358 1360 1358 1356 1357 1357 1358 1358 1357 1356 1358 1359 1360 1363 1365 1368 1371 1373 1377 1381 1384 1388 1391 1394 1396 1398 1399 1401 1402 1402 1402 1402 1402 1401 1400 1398 1396 1393 1391 1388 1386 1384 1381 1379 1376 1373 1369 1366 1362 1359 1354 1350 1345 1339 1335 1329
1430 1426 1423 1424 1420 1415 1420 1426 1427 1431 1424 1395 1373 1373 1380 1380 1382 1386 1384 1379 1378 1381 1381 1372 1355 1348 1357 1361 1355 1352 1351 1349 1349 1349 1352 1354 1353 1351 1350 1350 1352 1353 1355 1358 1360 1363 1366 1369 1373 1377 1381 1384 1387 1390 1393 1394 1396 1397 1398 1398 1399 1399 1399 1398 1396 1394 1392 1390 1388 1385 1383 1380 1378 1375 1372 1369 1366 1363 1359 1355 1351 1346 1341 1336 1331 1326
1424 1424 1423 1420 1417 1420 1426 1430 1428 1418 1394 1372 1368 1373 1374 1371 1373 1377 1375 1369 1366 1365 1367 1365 1353 1349 1354 1353 1348 1349 1348 1344 1343 1344 1347 1348 1346 1344 1345 1345 1346 1348 1350 1352 1355 1358 1360 1364 1368 1372 1376 1380 1383 1386 1389 1391 1392 1394 1394 1395 1396 1396 1395 1394 1393 1391 1389 1387 1385 1382 1380 1377 1374 1372 1369 1366 1363 1360 1356 1352 1348 1343 1338 1332 1327 1322
1413 1419 1420 1416 1417 1423 1428 1425 1410 1387 1372 1372 1371 1366 1367 1372 1375 1376 1372 1363 1356 1354 1360 1361 1351 1346 1349 1348 1344 1345 1345 1344 1341 1338 1340 1340 1337 1338 1340 1338 1339 1342 1343 1345 1348 1350 1353 1357 1362 1367 1371 1376 1380 1383 1385 1387 1389 1390 1391 1392 1393 1393 1392 1391 1390 1388 1386 1384 1382 1379 1376 1374 1371 1368 1366 1363 1360 1356 1353 1349 1344 1340 1334 1329 1324 1320
1404 1409 1412 1411 1408 1410 1413 1407 1394 1384 1383 1377 1360 1350 1358 1368 1370 1372 1369 1356 1341 1340 1350 1355 1348 1343 1344 1343 1341 1342 1344 1346 1341 1333 1332 1333 1331 1333 1334 1333 1335 1337 1338 1341 1344 1346 1350 1355 1360 1366 1370 1373 1377 1379 1382 1384 1385 1387 1388 1389 1390 1390 1389 1388 1387 1385 1383 1381 1379 1376 1374 1371 1368 1365 1363 1360 1357 1353 1350 1345 1341 1336 1332 1326 1321 1317
1398 1399 1402 1405 1400 1397 1401 1400 1396 1394 1384 1363 1345 1344 1353 1359 1360 1365 1368 1352 1328 1326 1341 1348 1341 1337 1337 1338 1339 1340 1344 1348 1341 1328 1325 1326 1326 1328 1329 1330 1332 1334 1335 1338 1341 1345 1350 1355 1360 1364 1368 1371 1374 1376 1379 1381 1382 1384 1385 1386 1387 1387 1386 1385 1384 1382 1380 1378 1376 1374 1371 1368 1365 1363 1360 1357 1354 1350 1346 1342 1338 1333 1329 1324 1318 1314
1396 1397 1398 1401 1398 1394 1396 1393 1387 1379 1363 1347 1343 1348 1355 1358 1357 1364 1371 1352 1322 1319 1334 1336 1332 1331 1331 1332 1335 1339 1345 1347 1336 1322 1320 1322 1323 1324 1325 1327 1329 1331 1333 1336 1338 1342 1347 1352 1357 1361 1365 1368 1371 1373 1376 1378 1379 1381 1382 1383 1384 1383 1383 1382 1380 1379 1377 1375 1373 1371 1369 1366 1363 1360 1357 1354 1351 1348 1344 1340 1336 1331 1327 1322 1317 1312
1396 1398 1399 1400 1394 1388 1387 1382 1372 1363 1352 1345 1346 1353 1357 1355 1356 1369 1369 1339 1312 1315 1324 1322 1323 1325 1324 1326 1333 1337 1339 1336 1326 1317 1317 1319 1320 1321 1322 1324 1326 1328 1331 1334 1338 1341 1345 1350 1354 1358 1362 1365 1368 1370 1373 1374 1376 1378 1379 1380 1380 1380 1380 1379 1377 1376 1374 1373 1371 1369 1366 1364 1361 1358 1355 1352 1349 1346 1342 1338 1333 1329 1324 1320 1315 1310
1391 1391 1392 1391 1385 1381 1380 1373 1363 1354 1346 1343 1347 1353 1355 1355 1362 1368 1348 1315 1306 1314 1315 1314 1318 1318 1318 1324 1328 1327 1324 1321 1317 1315 1315 1316 1317 1319 1320 1322 1324 1327 1329 1332 1336 1340 1344 1348 1352 1356 1360 1363 1365 1368 1370 1371 1373 1375 1376 1376 1377 1377 1376 1375 1374 1373 1372 1370 1369 1367 1364 1362 1359 1356 1354 1350 1346 1343 1340 1336 1332 1327 1322 1318 1313 1307
1378 1380 1380 1379 1377 1374 1369 1364 1362 1352 1337 1336 1345 1349 1350 1355 1355 1339 1311 1298 1306 1311 1308 1311 1314 1312 1315 1319 1318 1316 1315 1314 1314 1315 1314 1315 1316 1316 1318 1320 1322 1325 1328 1331 1334 1338 1342 1346 1350 1353 1357 1360 1362 1365 1367 1369 1370 1371 1372 1373 1373 1373 1373 1372 1371 1370 1369 1367 1366 1364 1362 1360 1357 1354 1352 1348 1344 1341 1337 1334 1330 1325 1321 1316 1311 1305
1355 1362 1365 1362 1358 1360 1363 1364 1361 1344 1323 1323 1338 1346 1345 1338 1319 1298 1290 1297 1303 1302 1303 1307 1307 1307 1312 1312 1310 1312 1311 1312 1314 1314 1313 1314 1315 1315 1316 1317 1318 1321 1324 1327 1332 1336 1339 1343 1347 1350 1353 1357 1359 1362 1364 1366 1367 1368 1369 1370 1370 1370 1369 1369 1368 1367 1366 1365 1364 1362 1360 1358 1355 1352 1349 1346 1342 1338 1334 1331 1328 1324 1319 1315 1309 1303
1337 1342 1344 1338 1333 1340 1348 1343 1330 1314 1304 1308 1317 1320 1317 1304 1286 1281 1290 1296 1295 1294 1298 1300 1300 1302 1305 1304 1305 1307 1307 1308 1310 1310 1310 1312 1313 1313 1314 1315 1317 1319 1321 1325 1329 1333 1337 1341 1344 1347 1351 1354 1356 1359 1361 1363 1364 1365 1366 1366 1366 1366 1366 1365 1365 1364 1363 1362 1361 1359 1358 1356 1353 1350 1347 1344 1340 1336 1332 1329 1325 1322 1317 1312 1307 1302
1315 1310 1309 1309 1308 1309 1308 1301 1295 1293 1296 1300 1297 1292 1289 1284 1279 1282 1288 1289 1288 1289 1292 1294 1296 1296 1297 1298 1301 1302 1303 1305 1305 1305 1307 1308 1308 1310 1311 1312 1314 1316 1319 1323 1327 1330 1335 1339 1341 1345 1348 1350 1354 1356 1358 1360 1360 1361 1362 1363 1363 1363 1363 1363 1363 1362 1361 1360 1358 1357 1355 1354 1352 1349 1345 1342 1338 1334 1330 1326 1323 1319 1315 1310 1306 1302
1296 1294 1295 1296 1297 1295 1290 1287 1289 1290 1291 1293 1289 1283 1280 1280 1281 1283 1284 1284 1284 1285 1287 1290 1291 1290 1292 1295 1296 1298 1299 1300 1300 1302 1303 1305 1306 1308 1308 1309 1312 1314 1316 1320 1323 1327 1332 1336 1340 1343 1346 1348 1351 1353 1355 1356 1357 1358 1359 1360 1360 1360 1360 1360 1360 1359 1359 1357 1356 1354 1353 1351 1350 1347 1344 1341 1337 1333 1330 1326 1322 1318 1313 1308 1305 1301
1294 1296 1296 1295 1295 1293 1287 1281 1281 1282 1283 1286 1284 1279 1277 1278 1279 1280 1280 1278 1279 1281 1283 1286 1286 1287 1289 1290 1291 1292 1295 1296 1297 1298 1299 1301 1304 1305 1306 1307 1309 1311 1314 1317 1320 1324 1329 1332 1337 1340 1343 1346 1348 1350 1351 1352 1353 1355 1356 1356 1357 1357 1357 1357 1357 1357 1356 1355 1353 1352 1350 1348 1347 1345 1342 1339 1335 1332 1328 1325 1322 1318 1313 1308 1303 1299
1288 1290 1293 1292 1288 1283 1275 1270 1271 1274 1276 1278 1278 1275 1274 1273 1272 1274 1275 1275 1276 1277 1278 1279 1281 1283 1283 1283 1285 1287 1289 1291 1293 1293 1294 1297 1300 1301 1303 1304 1305 1308 1312 1315 1318 1322 1326 1330 1334 1338 1341 1344 1345 1346 1348 1349 1350 1352 1353 1353 1354 1354 1354 1355 1354 1354 1353 1352 1351 1349 1348 1346 1344 1341 1340 1337 1334 1331 1327 1322 1319 1317 1313 1309 1304 1299
1280 1282 1284 1285 1283 1276 1271 1270 1272 1274 1274 1274 1271 1267 1264 1263 1264 1268 1269 1270 1271 1273 1272 1273 1275 1276 1276 1277 1279 1282 1284 1285 1286 1287 1289 1292 1294 1297 1300 1301 1303 1306 1309 1312 1316 1320 1324 1328 1332 1335 1339 1341 1342 1344 1345 1346 1347 1348 1349 1350 1351 1351 1352 1352 1351 1351 1351 1350 1349 1347 1346 1344 1341 1339 1336 1334 1333 1331 1328 1323 1318 1316 1314 1312 1308 1303
1276 1276 1276 1280 1279 1272 1266 1265 1266 1266 1265 1262 1257 1253 1253 1255 1257 1260 1262 1263 1263 1264 1264 1266 1268 1269 1270 1272 1274 1275 1276 1277 1279 1281 1283 1285 1288 1292 1295 1298 1302 1304 1306 1310 1314 1318 1322 1327 1330 1333 1336 1338 1340 1341 1342 1343 1344 1345 1346 1347 1348 1349 1349 1349 1349 1349 1348 1347 1346 1345 1344 1342 1340 1337 1334 1331 1329 1329 1328 1326 1322 1318 1314 1311 1309 1306
1263 1262 1264 1266 1262 1253 1249 1250 1253 1252 1250 1248 1245 1243 1245 1248 1250 1251 1253 1253 1252 1252 1255 1258 1261 1264 1264 1265 1266 1268 1268 1269 1272 1275 1278 1281 1283 1286 1290 1294 1296 1299 1303 1307 1311 1314 1319 1323 1326 1330 1333 1335 1337 1339 1340 1341 1341 1342 1343 1344 1345 1346 1347 1347 1347 1347 1346 1345 1344 1343 1341 1340 1338 1335 1332 1329 1327 1324 1323 1323 1323 1320 1317 1313 1310 1306